Hourly Data Report for November 25, 2017

All times are specified in Local Standard Time (LST). Add 1 hour to adjust for Daylight Saving Time where and when it is observed.

DAUPHIN
MANITOBA

51°06'03.000" N
100°03'09.000" W
304.50 m
5040689
71036
YDN

Download Data

Hourly Data (November 2017)
Hourly Data Report for November 25, 2017
Temp Definition
°C
Dew Point Temp Definition
°C
Rel Hum Definition
%
Wind Dir Definition
10's deg

Wind Spd Definition
km/h
Visibility Definition
km
Stn Press Definition
kPa
Hmdx Definition


Wind Chill Definition


Weather Definition


TIME
00:00 Legend Double Dagger -12.0 -13.7 87 1 5 16.1 97.68   -15 LegendNANA
01:00 Legend Double Dagger -15.5 -17.1 88 28 8 16.1 97.80   -21 LegendNANA
02:00 Legend Double Dagger -14.7 -15.7 92 26 8 16.1 97.81   -20 LegendNANA
03:00 Legend Double Dagger -15.7 -17.1 89 23 8 16.1 97.89   -21 LegendNANA
04:00 Legend Double Dagger -15.3 -16.6 90 23 5 16.1 97.90   -19 LegendNANA
05:00 Legend Double Dagger -15.0 -16.5 89 27 11 16.1 97.96   -22 LegendNANA
06:00 Legend Double Dagger -13.5 -15.3 86 25 9 16.1 98.01   -19 LegendNANA
07:00 Legend Double Dagger -12.3 -14.6 83 24 8 16.1 98.04   -17 LegendNANA
08:00 Legend Double Dagger -10.6 -13.4 80 25 15 16.1 98.06   -17 LegendNANA
09:00 Legend Double Dagger -10.7 -13.4 81 22 8 16.1 98.06   -15 LegendNANA
10:00 Legend Double Dagger -7.5 -11.5 73 22 11 16.1 97.99   -13 LegendNANA
11:00 Legend Double Dagger -8.3 -10.9 82 13 8 16.1 97.98   -12 LegendNANA
12:00 Legend Double Dagger -7.1 -9.9 80 12 4 16.1 97.96   -9 LegendNANA
13:00 Legend Double Dagger -5.9 -8.9 80 14 8 16.1 97.88   -10 LegendNANA
14:00 Legend Double Dagger -5.3 -8.6 78 12 9 16.1 97.75   -9 LegendNANA
15:00 Legend Double Dagger -5.0 -8.6 76 13 8 16.1 97.69   -9 LegendNANA
16:00 Legend Double Dagger -5.2 -8.3 79   0 16.1 97.61     LegendNANA
17:00 Legend Double Dagger -6.5 -8.5 86   0 16.1 97.51     LegendNANA
18:00 Legend Double Dagger -0.7 -2.9 85 23 18 16.1 97.48   -6 LegendNANA
19:00 Legend Double Dagger 0.6 -2.2 82 23 24 16.1 97.38     LegendNANA
20:00 Legend Double Dagger 1.5 -1.8 79 23 24 16.1 97.33     LegendNANA
21:00 Legend Double Dagger 2.9 -1.3 74 25 32 16.1 97.37     LegendNANA
22:00 Legend Double Dagger 2.2 -1.4 77 24 15 16.1 97.42     LegendNANA
23:00 Legend Double Dagger 1.6 -1.6 79 27 34 16.1 97.51     LegendNANA

Notes on Data Quality.

Legend

  • E = Estimated
  • M = Missing
  • NA = Not Available
  • ‡ = Partner data that is not subject to review by the National Climate Archives
Date modified: